Tracking 20037 objects as of 20-Nov-2019
Live streaming from Space Station
objects crossing your sky now

IRIDIUM 39

Track IRIDIUM 39 now!
10-day predictions
IRIDIUM 39 is classified as:


NORAD ID: 25042
Int'l Code: 1997-069D
Perigee: 732.7 km
Apogee: 756.8 km
Inclination: 86.4 °
Period: 99.6 minutes
Semi major axis: 7115 km
RCS: 4.3221 m2 (large)
Launch date: November 9, 1997
Source: United States (US)
Launch site: AIR FORCE WESTERN TEST RANGE (AFWTR)
aabbcc
Your satellite tracking list
Your tracking list is empty




NASA's NSSDC Master Catalog

Two Line Element Set (TLE):
1 25042U 97069D   19323.62581872  .00000118  00000-0  27158-4 0  9998
2 25042  86.3931   1.4283 0016986 245.4188 114.5245 14.46343004154691
Source of the keplerian elements: AFSPC